Saint Francis, KS

3:57 PM CDT on September 29, 2016 (GMT -0500)
Cheyenne County Municipal

Weather History for KSYF - December, 2013

Change the Weather History Date:

Tuesday, December 24, 2013

  Actual Average Record
Temperature  
Mean Temperature 39 °F -  
Max Temperature 58 °F 41 °F 58 °F (2013)
Min Temperature 20 °F 14 °F 11 °F (2012)
Degree Days  
Heating Degree Days 26    
Moisture  
Dew Point 23 °F    
Average Humidity 67    
Maximum Humidity 91    
Minimum Humidity 26    
Precipitation  
Precipitation 0.00 in - - ()
Sea Level Pressure  
Sea Level Pressure 30.08 in    
Wind  
Wind Speed 10 mph (West)    
Max Wind Speed 23 mph    
Max Gust Speed 34 mph    
Visibility 10 miles    
Events      
Averages and records for this station are not official NWS values.
T = Trace of Precipitation, MM = Missing Value Source: NWS Daily Summary

Daily Weather History Graph

Daily Weather History Graph

Search for Another Location

Airport or City:

Trip Planner

Search our weather history database for the weather conditions in past years. The results will help you decide how hot, cold, wet, or windy it might be!

Date:

Astronomy

Dec. 24, 2013 Rise Set
Actual Time 8:06 AM CST 5:27 PM CST
Civil Twilight 7:35 AM CST 5:58 PM CST
Nautical Twilight 7:01 AM CST 6:32 PM CST
Astronomical Twilight 6:28 AM CST 7:05 PM CST
Moon No Moon Rise 12:02 PM CST (12/24)
Length of Visible Light 10h 22m
Length of Day
9h 21m
Waning Gibbous, 58% of the Moon is Illuminated
Dec 24
Waning Gibbous
Dec 25
Last Quarter
Jan 1
New
Jan 7
First Quarter
Jan 15
Full

Hourly Weather History & Observations

Time (CST) Temp. Windchill Dew Point Humidity Pressure Visibility Wind Dir Wind Speed Gust Speed Precip Events Conditions
12:15 AM 23.7 °F 14.7 °F 15.1 °F 70% 30.15 in 10.0 mi SW 8.1 mph - N/A   Clear
12:35 AM 23.4 °F 11.1 °F 15.3 °F 71% 30.13 in 10.0 mi SSW 13.8 mph - N/A   Clear
12:55 AM 22.1 °F 11.3 °F 14.9 °F 74% 30.13 in 10.0 mi SSW 10.4 mph - N/A   Clear
1:15 AM 21.2 °F 10.9 °F 14.4 °F 75% 30.12 in 10.0 mi SSW 9.2 mph - N/A   Clear
1:35 AM 20.7 °F 10.2 °F 14.5 °F 77% 30.10 in 10.0 mi SSW 9.2 mph - N/A   Scattered Clouds
1:55 AM 21.9 °F 13.4 °F 15.4 °F 76% 30.09 in 10.0 mi SW 6.9 mph - N/A   Mostly Cloudy
2:15 AM 22.3 °F 14.9 °F 15.6 °F 76% 30.08 in 10.0 mi South 5.8 mph - N/A   Scattered Clouds
2:35 AM 21.2 °F 13.6 °F 15.1 °F 77% 30.08 in 10.0 mi SSW 5.8 mph - N/A   Scattered Clouds
2:55 AM 21.9 °F 17.2 °F 15.8 °F 77% 30.07 in 10.0 mi SSW 3.5 mph - N/A   Scattered Clouds
3:15 AM 21.2 °F 16.4 °F 15.6 °F 79% 30.06 in 10.0 mi SW 3.5 mph - N/A   Clear
3:35 AM 20.8 °F 12.1 °F 15.6 °F 80% 30.05 in 10.0 mi SSW 6.9 mph - N/A   Clear
3:55 AM 21.2 °F 12.6 °F 15.6 °F 79% 30.04 in 10.0 mi SW 6.9 mph - N/A   Clear
4:15 AM 21.2 °F 10.9 °F 15.8 °F 80% 30.04 in 10.0 mi South 9.2 mph - N/A   Clear
4:35 AM 21.0 °F 11.4 °F 15.4 °F 79% 30.03 in 10.0 mi South 8.1 mph - N/A   Clear
4:55 AM 21.2 °F 13.6 °F 15.8 °F 80% 30.02 in 10.0 mi SSW 5.8 mph - N/A   Clear
5:15 AM 22.5 °F 14.1 °F 16.9 °F 79% 30.01 in 10.0 mi WSW 6.9 mph - N/A   Scattered Clouds
5:35 AM 21.7 °F - 16.7 °F 81% 30.00 in 10.0 mi Calm Calm - N/A   Overcast
5:55 AM 25.2 °F 17.3 °F 18.5 °F 76% 30.00 in 10.0 mi WSW 6.9 mph - N/A   Overcast
6:15 AM 26.4 °F 18.0 °F 18.5 °F 72% 30.00 in 10.0 mi WSW 8.1 mph - N/A   Overcast
6:35 AM 26.8 °F 15.9 °F 18.1 °F 70% 29.99 in 10.0 mi WSW 12.7 mph - N/A   Overcast
6:55 AM 25.5 °F 15.5 °F 17.6 °F 72% 29.98 in 10.0 mi SSW 10.4 mph - N/A   Scattered Clouds
7:15 AM 25.7 °F 15.1 °F 17.4 °F 71% 29.98 in 10.0 mi SW 11.5 mph - N/A   Clear
7:35 AM 26.2 °F 16.4 °F 17.6 °F 70% 29.99 in 10.0 mi WSW 10.4 mph - N/A   Clear
7:55 AM 24.3 °F 15.4 °F 17.2 °F 75% 29.99 in 10.0 mi WSW 8.1 mph - N/A   Clear
8:15 AM 23.5 °F 14.5 °F 17.1 °F 76% 29.99 in 10.0 mi SW 8.1 mph - N/A   Clear
8:35 AM 24.4 °F 14.2 °F 17.6 °F 75% 29.99 in 10.0 mi SSW 10.4 mph - N/A   Clear
8:55 AM 26.8 °F 19.3 °F 19.2 °F 73% 29.99 in 10.0 mi SW 6.9 mph - N/A   Clear
9:15 AM 31.1 °F 21.9 °F 20.5 °F 65% 29.99 in 10.0 mi WSW 11.5 mph - N/A   Scattered Clouds
9:35 AM 32.5 °F 24.2 °F 21.9 °F 65% 29.99 in 10.0 mi WSW 10.4 mph - N/A   Mostly Cloudy
9:55 AM 33.6 °F 25.0 °F 22.1 °F 63% 29.99 in 10.0 mi WSW 11.5 mph - N/A   Scattered Clouds
10:15 AM 33.8 °F 27.7 °F 23.0 °F 65% 29.99 in 10.0 mi WSW 6.9 mph - N/A   Clear
10:35 AM 39.2 °F 33.0 °F 24.3 °F 55% 29.99 in 10.0 mi SW 9.2 mph - N/A   Clear
10:55 AM 43.7 °F 39.7 °F 24.8 °F 47% 29.98 in 10.0 mi SW 6.9 mph - N/A   Clear
11:15 AM 46.6 °F - 25.7 °F 44% 29.98 in 10.0 mi WSW 6.9 mph - N/A   Clear
11:35 AM 49.6 °F - 25.2 °F 38% 29.96 in 10.0 mi WSW 5.8 mph - N/A   Clear
11:55 AM 53.2 °F - 24.6 °F 33% 29.95 in 10.0 mi Calm Calm - N/A   Clear
12:15 PM 54.1 °F - 25.5 °F 33% 29.94 in 10.0 mi North 6.9 mph - N/A   Clear
12:35 PM 58.6 °F - 23.5 °F 26% 29.94 in 10.0 mi NNW 13.8 mph - N/A   Clear
12:55 PM 55.4 °F - 23.0 °F 29% 29.93 in 10.0 mi NW 15.0 mph 19.6 mph N/A   Clear
1:15 PM 55.6 °F - 22.6 °F 28% 29.96 in 10.0 mi NW 18.4 mph 28.8 mph N/A   Clear
1:35 PM 52.3 °F - 26.8 °F 37% 29.97 in 10.0 mi North 12.7 mph 25.3 mph N/A   Scattered Clouds
1:55 PM 50.7 °F - 27.5 °F 41% 29.99 in 10.0 mi North 17.3 mph - N/A   Overcast
2:15 PM 48.2 °F - 28.9 °F 47% 29.99 in 10.0 mi North 16.1 mph 25.3 mph N/A   Overcast
2:35 PM 47.3 °F - 30.2 °F 52% 30.00 in 10.0 mi North 17.3 mph 26.5 mph N/A   Overcast
2:55 PM 45.9 °F 37.8 °F 31.6 °F 58% 30.02 in 10.0 mi NNW 21.9 mph 34.5 mph N/A   Overcast
3:15 PM 45.1 °F 38.4 °F 32.0 °F 60% 30.03 in 10.0 mi North 15.0 mph 24.2 mph N/A   Overcast
3:35 PM 43.2 °F 34.5 °F 30.7 °F 62% 30.07 in 10.0 mi NNW 20.7 mph 28.8 mph N/A   Overcast
3:55 PM 42.8 °F 33.5 °F 29.8 °F 60% 30.08 in 10.0 mi NNW 23.0 mph 29.9 mph N/A   Overcast
4:15 PM 42.3 °F 34.4 °F 29.3 °F 60% 30.10 in 10.0 mi North 16.1 mph 21.9 mph N/A   Overcast
4:35 PM 41.7 °F 33.1 °F 29.5 °F 62% 30.10 in 10.0 mi North 18.4 mph 25.3 mph N/A   Overcast
4:55 PM 41.0 °F 32.8 °F 29.5 °F 64% 30.12 in 10.0 mi North 16.1 mph - N/A   Overcast
5:15 PM 40.1 °F 33.6 °F 29.7 °F 66% 30.15 in 10.0 mi NNW 10.4 mph - N/A   Overcast
5:35 PM 39.4 °F 32.7 °F 29.8 °F 69% 30.15 in 10.0 mi NNW 10.4 mph - N/A   Overcast
5:55 PM 39.4 °F 31.4 °F 29.8 °F 69% 30.17 in 10.0 mi NNW 13.8 mph - N/A   Overcast
6:15 PM 40.1 °F 30.5 °F 28.6 °F 63% 30.17 in 10.0 mi NNW 20.7 mph 27.6 mph N/A   Overcast
6:35 PM 40.1 °F 30.7 °F 28.0 °F 62% 30.19 in 10.0 mi NNW 19.6 mph 27.6 mph N/A   Overcast
6:55 PM 39.9 °F 32.5 °F 28.0 °F 63% 30.21 in 10.0 mi NW 12.7 mph 23.0 mph N/A   Overcast
7:15 PM 39.4 °F 30.4 °F 28.2 °F 64% 30.19 in 10.0 mi NNW 17.3 mph 21.9 mph N/A   Overcast
7:35 PM 38.8 °F 30.0 °F 27.9 °F 65% 30.19 in 10.0 mi North 16.1 mph 21.9 mph N/A   Overcast
7:55 PM 37.4 °F 28.5 °F 27.9 °F 68% 30.21 in 10.0 mi North 15.0 mph - N/A   Mostly Cloudy
8:15 PM 37.2 °F 27.6 °F 29.3 °F 73% 30.22 in 10.0 mi North 17.3 mph 24.2 mph N/A   Mostly Cloudy
8:35 PM 35.4 °F 27.3 °F 29.1 °F 78% 30.24 in 10.0 mi North 11.5 mph 16.1 mph N/A   Scattered Clouds
8:55 PM 34.2 °F 27.5 °F 28.8 °F 81% 30.26 in 10.0 mi NNW 8.1 mph - N/A   Mostly Cloudy
9:15 PM 33.6 °F 26.8 °F 28.2 °F 81% 30.27 in 10.0 mi NNW 8.1 mph - N/A   Overcast
9:35 PM 32.0 °F 27.5 °F 27.5 °F 83% 30.28 in 10.0 mi NNW 4.6 mph - N/A   Scattered Clouds
9:55 PM 30.9 °F 25.2 °F 27.0 °F 85% 30.28 in 10.0 mi NW 5.8 mph - N/A   Clear
10:15 PM 30.2 °F 24.3 °F 26.8 °F 87% 30.29 in 10.0 mi West 5.8 mph - N/A   Clear
10:35 PM 29.5 °F 24.5 °F 26.6 °F 89% 30.29 in 10.0 mi WNW 4.6 mph - N/A   Scattered Clouds
10:55 PM 29.5 °F 23.4 °F 26.8 °F 90% 30.29 in 10.0 mi West 5.8 mph - N/A   Mostly Cloudy
11:15 PM 28.8 °F 21.7 °F 26.1 °F 90% 30.29 in 10.0 mi West 6.9 mph - N/A   Mostly Cloudy
11:35 PM 27.0 °F 19.5 °F 24.6 °F 91% 30.29 in 10.0 mi West 6.9 mph - N/A   Scattered Clouds
11:55 PM 24.6 °F 16.7 °F 22.5 °F 91% 30.29 in 10.0 mi WSW 6.9 mph - N/A   Clear